QPF
0.00 0.00 0.00 0.00 0.01 0.02 0.02 0.01 0.02 0.03 0.04 0.04 0.05 0.04 0.03 0.03 0.02 0.01 0.01 0.03 0.04 0.05 0.05 0.06 0.07 0.07 0.04 0.03 0.02 0.02 0.02 0.03 0.02 0.02 0.05 0.08 0.09 0.08 0.06 0.04 0.05 0.05 0.06
0.00 0.00 0.00 0.00 0.01 0.02 0.02 0.01 0.02 0.03 0.03 0.04 0.04 0.04 0.04 0.03 0.02 0.01 0.01 0.01 0.02 0.04 0.05 0.05 0.06 0.06 0.04 0.04 0.03 0.03 0.02 0.03 0.04 0.06 0.06 0.06 0.06 0.06 0.05 0.04 0.05 0.04 0.05
0.00 0.00 0.00 0.01 0.01 0.01 0.02 0.01 0.03 0.03 0.03 0.04 0.04 0.03 0.04 0.03 0.03 0.02 0.01 0.01 0.01 0.04 0.07 0.05 0.06 0.07 0.08 0.07 0.06 0.04 0.02 0.02 0.02 0.03 0.03 0.04 0.05 0.05 0.05 0.04 0.04 0.03 0.04
0.00 0.00 0.00 0.01 0.01 0.01 0.01 0.02 0.02 0.02 0.02 0.03 0.04 0.05 0.06 0.05 0.04 0.04 0.02 0.01 0.02 0.04 0.05 0.04 0.04 0.06 0.09 0.08 0.06 0.03 0.02 0.01 0.02 0.02 0.03 0.02 0.02 0.04 0.04 0.04 0.04 0.04 0.04
0.00 0.01 0.01 0.01 0.01 0.01 0.01 0.01 0.01 0.01 0.02 0.03 0.03 0.05 0.06 0.07 0.07 0.05 0.04 0.03 0.04 0.04 0.03 0.03 0.03 0.03 0.05 0.06 0.04 0.04 0.03 0.03 0.02 0.03 0.02 0.02 0.01 0.02 0.02 0.03 0.04 0.04 0.04
0.01 0.01 0.01 0.01 0.01 0.02 0.01 0.01 0.01 0.00 0.01 0.02 0.03 0.04 0.05 0.08 0.09 0.07 0.05 0.04 0.06 0.04 0.02 0.02 0.02 0.02 0.03 0.03 0.02 0.03 0.05 0.05 0.04 0.03 0.03 0.03 0.03 0.02 0.02 0.03 0.03 0.04 0.04
0.00 0.01 0.00 0.00 0.00 0.01 0.01 0.01 0.01 0.01 0.01 0.02 0.02 0.03 0.05 0.07 0.09 0.08 0.06 0.05 0.06 0.04 0.03 0.02 0.02 0.02 0.02 0.02 0.02 0.03 0.04 0.04 0.05 0.05 0.06 0.06 0.04 0.04 0.04 0.03 0.03 0.04 0.04
0.00 0.01 0.01 0.00 0.00 0.01 0.01 0.01 0.01 0.01 0.01 0.01 0.01 0.02 0.03 0.06 0.11 0.09 0.07 0.05 0.04 0.03 0.02 0.02 0.02 0.02 0.01 0.02 0.02 0.02 0.03 0.04 0.04 0.05 0.07 0.08 0.05 0.05 0.05 0.03 0.04 0.05 0.04
0.01 0.01 0.01 0.01 0.00 0.00 0.01 0.01 0.00 0.00 0.01 0.02 0.01 0.01 0.02 0.07 0.11 0.11 0.07 0.04 0.03 0.03 0.03 0.02 0.04 0.04 0.02 0.02 0.02 0.02 0.02 0.02 0.03 0.03 0.05 0.08 0.06 0.05 0.04 0.04 0.06 0.06 0.06
0.01 0.01 0.02 0.01 0.00 0.00 0.01 0.00 0.00 0.00 0.01 0.02 0.02 0.01 0.02 0.05 0.07 0.07 0.06 0.05 0.05 0.04 0.05 0.04 0.05 0.06 0.04 0.04 0.04 0.02 0.01 0.02 0.03 0.07 0.12 0.12 0.07 0.05 0.06 0.09 0.07 0.09 0.08
0.01 0.00 0.01 0.01 0.01 0.01 0.01 0.00 0.01 0.00 0.00 0.01 0.01 0.02 0.03 0.04 0.05 0.03 0.04 0.05 0.06 0.06 0.06 0.04 0.06 0.09 0.07 0.06 0.04 0.01 0.01 0.01 0.01 0.05 0.15 0.18 0.11 0.08 0.11 0.13 0.17 0.19 0.15
0.01 0.01 0.01 0.01 0.02 0.01 0.00 0.00 0.00 0.00 0.01 0.01 0.01 0.02 0.03 0.04 0.04 0.02 0.03 0.04 0.03 0.04 0.06 0.06 0.07 0.12 0.11 0.08 0.06 0.03 0.02 0.01 0.01 0.02 0.10 0.18 0.17 0.14 0.16 0.20 0.21 0.20 0.19
0.00 0.00 0.01 0.02 0.02 0.02 0.01 0.01 0.00 0.01 0.01 0.01 0.02 0.02 0.02 0.02 0.02 0.02 0.02 0.02 0.02 0.04 0.07 0.07 0.09 0.12 0.12 0.09 0.08 0.05 0.03 0.02 0.02 0.05 0.09 0.13 0.20 0.25 0.22 0.19 0.16 0.13 0.13
0.00 0.00 0.00 0.01 0.01 0.03 0.02 0.01 0.01 0.01 0.01 0.02 0.02 0.02 0.02 0.03 0.03 0.01 0.02 0.02 0.01 0.03 0.06 0.06 0.08 0.09 0.08 0.08 0.08 0.05 0.03 0.03 0.03 0.06 0.09 0.08 0.09 0.14 0.17 0.15 0.13 0.11 0.08
0.00 0.01 0.00 0.00 0.00 0.01 0.01 0.01 0.01 0.02 0.02 0.02 0.01 0.01 0.01 0.02 0.01 0.01 0.01 0.01 0.01 0.02 0.04 0.04 0.04 0.04 0.03 0.03 0.03 0.02 0.02 0.02 0.02 0.03 0.04 0.07 0.08 0.06 0.06 0.07 0.08 0.08 0.07
0.01 0.01 0.01 0.00 0.01 0.01 0.01 0.01 0.01 0.00 0.00 0.01 0.00 0.01 0.03 0.02 0.00 0.00 0.01 0.01 0.01 0.01 0.02 0.02 0.01 0.01 0.01 0.00 0.00 0.00 0.00 0.00 0.00 0.01 0.02 0.04 0.06 0.05 0.04 0.04 0.04 0.04 0.04
0.01 0.00 0.00 0.00 0.01 0.01 0.01 0.01 0.01 0.01 0.01 0.01 0.01 0.02 0.02 0.01 0.00 0.00 0.01 0.00 0.00 0.00 0.01 0.01 0.00 0.00 0.00 0.00 0.00 0.00 0.00 0.00 0.00 0.00 0.00 0.01 0.02 0.03 0.03 0.03 0.02 0.02 0.02
0.01 0.00 0.00 0.00 0.01 0.01 0.01 0.01 0.01 0.02 0.01 0.01 0.02 0.02 0.01 0.01 0.00 0.00 0.00 0.00 0.00 0.00 0.00 0.00 0.00 0.00 0.00 0.00 0.00 0.00 0.00 0.00 0.00 0.01 0.01 0.01 0.01 0.01 0.01 0.01 0.01 0.01 0.01
0.01 0.01 0.01 0.01 0.01 0.00 0.00 0.01 0.02 0.02 0.01 0.02 0.02 0.01 0.01 0.00 0.00 0.00 0.00 0.00 0.00 0.00 0.00 0.00 0.00 0.00 0.00 0.01 0.00 0.00 0.00 0.01 0.01 0.01 0.01 0.01 0.01 0.01 0.00 0.01 0.01 0.00 0.00
0.00 0.00 0.01 0.00 0.00 0.00 0.00 0.01 0.02 0.02 0.02 0.03 0.02 0.01 0.00 0.00 0.00 0.00 0.00 0.00 0.00 0.00 0.00 0.00 0.00 0.00 0.00 0.00 0.00 0.00 0.00 0.00 0.00 0.00 0.00 0.00 0.00 0.00 0.00 0.00 0.00 0.00 0.00
0.00 0.00 0.00 0.00 0.00 0.00 0.00 0.01 0.01 0.02 0.02 0.02 0.01 0.00 0.00 0.00 0.00 0.00 0.00 0.00 0.00 0.00 0.00 0.00 0.00 0.00 0.00 0.00 0.00 0.00 0.01 0.01 0.00 0.00 0.00 0.00 0.00 0.00 0.00 0.00 0.00 0.00 0.00
0.00 0.00 0.00 0.00 0.00 0.00 0.00 0.00 0.01 0.01 0.01 0.00 0.00 0.00 0.00 0.00 0.00 0.00 0.00 0.00 0.00 0.00 0.00 0.00 0.00 0.00 0.00 0.00 0.00 0.01 0.01 0.01 0.00 0.00 0.00 0.00 0.00 0.00 0.00 0.00 0.00 0.00 0.00
0.00 0.00 0.00 0.00 0.00 0.00 0.00 0.00 0.00 0.00 0.00 0.00 0.00 0.00 0.00 0.00 0.00 0.00 0.00 0.00 0.00 0.00 0.00 0.00 0.00 0.00 0.00 0.00 0.01 0.01 0.01 0.01 0.00 0.00 0.00 0.00 0.00 0.01 0.00 0.00 0.00 0.00 0.00
0.00 0.00 0.00 0.00 0.00 0.00 0.00 0.00 0.00 0.00 0.00 0.00 0.00 0.00 0.00 0.00 0.00 0.00 0.00 0.00 0.00 0.00 0.00 0.00 0.00 0.00 0.00 0.00 0.01 0.01 0.01 0.01 0.00 0.00 0.00 0.00 0.01 0.01 0.01 0.00 0.00 0.01 0.00
0.00 0.00 0.00 0.01 0.01 0.01 0.00 0.00 0.00 0.00 0.00 0.00 0.00 0.00 0.00 0.00 0.00 0.00 0.00 0.00 0.00 0.00 0.00 0.00 0.00 0.00 0.00 0.00 0.01 0.01 0.01 0.01 0.00 0.00 0.00 0.00 0.00 0.00 0.00 0.00 0.00 0.00 0.00
0.01 0.01 0.01 0.01 0.01 0.01 0.00 0.00 0.00 0.00 0.00 0.00 0.00 0.00 0.00 0.00 0.00 0.00 0.00 0.00 0.00 0.00 0.00 0.00 0.00 0.00 0.00 0.00 0.00 0.01 0.01 0.01 0.01 0.00 0.00 0.00 0.00 0.00 0.00 0.00 0.00 0.00 0.00
MSLP
1016.82 1016.85 1016.80 1016.72 1016.61 1016.51 1016.46 1016.47 1016.53 1016.66 1016.83 1017.02 1017.21 1017.38 1017.53 1017.64 1017.71 1017.75 1017.77 1017.76 1017.74 1017.71 1017.67 1017.61 1017.51 1017.36 1017.16 1016.89 1016.58 1016.24 1015.88 1015.54 1015.22 1014.91 1014.57 1014.13 1013.51 1012.65 1011.48 1010.00 1008.29 1006.46 1004.69
1016.73 1016.74 1016.70 1016.64 1016.57 1016.52 1016.51 1016.57 1016.68 1016.84 1017.04 1017.26 1017.47 1017.66 1017.80 1017.90 1017.95 1017.95 1017.93 1017.90 1017.87 1017.84 1017.82 1017.78 1017.72 1017.61 1017.43 1017.19 1016.87 1016.51 1016.13 1015.76 1015.42 1015.10 1014.78 1014.38 1013.83 1013.06 1012.02 1010.68 1009.11 1007.43 1005.78
1016.60 1016.61 1016.60 1016.58 1016.58 1016.60 1016.67 1016.78 1016.95 1017.16 1017.40 1017.64 1017.87 1018.05 1018.18 1018.25 1018.26 1018.22 1018.15 1018.07 1018.00 1017.96 1017.93 1017.92 1017.89 1017.81 1017.67 1017.45 1017.14 1016.77 1016.37 1015.98 1015.61 1015.28 1014.97 1014.62 1014.17 1013.54 1012.68 1011.57 1010.24 1008.80 1007.38
1016.51 1016.52 1016.55 1016.59 1016.67 1016.77 1016.92 1017.10 1017.33 1017.58 1017.85 1018.11 1018.33 1018.51 1018.63 1018.67 1018.63 1018.54 1018.42 1018.29 1018.18 1018.10 1018.06 1018.05 1018.04 1017.99 1017.89 1017.69 1017.41 1017.05 1016.64 1016.22 1015.83 1015.48 1015.17 1014.87 1014.51 1014.03 1013.38 1012.53 1011.51 1010.37 1009.24
1016.48 1016.50 1016.57 1016.68 1016.83 1017.02 1017.24 1017.48 1017.75 1018.03 1018.32 1018.58 1018.81 1018.98 1019.09 1019.11 1019.05 1018.93 1018.76 1018.58 1018.43 1018.31 1018.25 1018.22 1018.22 1018.20 1018.12 1017.96 1017.71 1017.36 1016.96 1016.52 1016.11 1015.74 1015.43 1015.15 1014.86 1014.52 1014.07 1013.48 1012.75 1011.92 1011.09
1016.55 1016.58 1016.69 1016.86 1017.07 1017.32 1017.59 1017.87 1018.16 1018.45 1018.73 1018.99 1019.22 1019.40 1019.51 1019.54 1019.48 1019.35 1019.17 1018.97 1018.78 1018.63 1018.54 1018.50 1018.49 1018.48 1018.43 1018.30 1018.08 1017.76 1017.36 1016.93 1016.50 1016.10 1015.77 1015.49 1015.25 1014.99 1014.69 1014.31 1013.84 1013.30 1012.73
1016.72 1016.76 1016.89 1017.09 1017.35 1017.63 1017.92 1018.21 1018.49 1018.76 1019.03 1019.28 1019.51 1019.71 1019.85 1019.91 1019.90 1019.81 1019.65 1019.46 1019.26 1019.09 1018.97 1018.90 1018.88 1018.86 1018.82 1018.72 1018.53 1018.24 1017.87 1017.45 1017.01 1016.59 1016.23 1015.93 1015.68 1015.47 1015.26 1015.02 1014.73 1014.40 1014.05
1016.97 1017.00 1017.15 1017.36 1017.63 1017.92 1018.20 1018.47 1018.71 1018.95 1019.19 1019.42 1019.66 1019.88 1020.07 1020.21 1020.27 1020.25 1020.16 1020.01 1019.83 1019.66 1019.52 1019.43 1019.38 1019.34 1019.30 1019.21 1019.05 1018.80 1018.46 1018.06 1017.63 1017.20 1016.81 1016.47 1016.20 1015.99 1015.80 1015.62 1015.44 1015.24 1015.03
1017.26 1017.30 1017.43 1017.65 1017.90 1018.17 1018.41 1018.63 1018.83 1019.01 1019.20 1019.42 1019.66 1019.92 1020.18 1020.40 1020.57 1020.65 1020.65 1020.57 1020.44 1020.29 1020.14 1020.02 1019.94 1019.88 1019.82 1019.73 1019.59 1019.37 1019.08 1018.72 1018.31 1017.88 1017.48 1017.12 1016.81 1016.55 1016.35 1016.18 1016.03 1015.89 1015.75
1017.59 1017.61 1017.73 1017.93 1018.15 1018.38 1018.57 1018.73 1018.86 1018.99 1019.13 1019.32 1019.56 1019.85 1020.17 1020.48 1020.75 1020.95 1021.06 1021.07 1021.01 1020.89 1020.75 1020.61 1020.49 1020.40 1020.31 1020.22 1020.09 1019.90 1019.65 1019.34 1018.98 1018.58 1018.19 1017.82 1017.48 1017.19 1016.95 1016.76 1016.60 1016.46 1016.35
1017.90 1017.92 1018.02 1018.19 1018.38 1018.56 1018.71 1018.81 1018.87 1018.94 1019.03 1019.18 1019.41 1019.72 1020.08 1020.46 1020.82 1021.12 1021.33 1021.44 1021.45 1021.38 1021.26 1021.11 1020.97 1020.84 1020.72 1020.61 1020.48 1020.33 1020.12 1019.87 1019.57 1019.23 1018.88 1018.53 1018.20 1017.89 1017.63 1017.40 1017.21 1017.06 1016.93
1018.21 1018.21 1018.30 1018.45 1018.61 1018.75 1018.85 1018.90 1018.92 1018.93 1018.97 1019.08 1019.28 1019.58 1019.95 1020.37 1020.79 1021.16 1021.45 1021.64 1021.73 1021.71 1021.62 1021.49 1021.33 1021.18 1021.04 1020.90 1020.77 1020.63 1020.46 1020.27 1020.04 1019.78 1019.50 1019.21 1018.91 1018.63 1018.36 1018.12 1017.91 1017.74 1017.60
1018.49 1018.49 1018.57 1018.70 1018.84 1018.96 1019.03 1019.06 1019.04 1019.01 1019.02 1019.08 1019.24 1019.50 1019.85 1020.26 1020.69 1021.10 1021.45 1021.70 1021.85 1021.90 1021.85 1021.74 1021.59 1021.43 1021.27 1021.11 1020.97 1020.84 1020.71 1020.56 1020.41 1020.23 1020.03 1019.82 1019.60 1019.37 1019.14 1018.92 1018.71 1018.54 1018.39
1018.77 1018.77 1018.84 1018.96 1019.10 1019.21 1019.28 1019.30 1019.27 1019.23 1019.21 1019.23 1019.34 1019.54 1019.83 1020.20 1020.61 1021.02 1021.38 1021.68 1021.88 1021.98 1022.00 1021.93 1021.81 1021.65 1021.49 1021.32 1021.17 1021.03 1020.91 1020.80 1020.71 1020.60 1020.50 1020.38 1020.24 1020.09 1019.92 1019.75 1019.58 1019.41 1019.27
1019.03 1019.04 1019.12 1019.24 1019.38 1019.51 1019.60 1019.63 1019.63 1019.59 1019.55 1019.55 1019.60 1019.74 1019.96 1020.26 1020.61 1020.98 1021.34 1021.65 1021.90 1022.06 1022.14 1022.14 1022.06 1021.94 1021.78 1021.61 1021.45 1021.30 1021.18 1021.08 1021.02 1020.98 1020.94 1020.91 1020.86 1020.79 1020.70 1020.59 1020.46 1020.32 1020.19
1019.30 1019.32 1019.40 1019.54 1019.69 1019.85 1019.97 1020.05 1020.08 1020.07 1020.05 1020.03 1020.05 1020.12 1020.27 1020.48 1020.76 1021.08 1021.41 1021.73 1022.01 1022.22 1022.37 1022.44 1022.43 1022.36 1022.23 1022.07 1021.89 1021.73 1021.59 1021.49 1021.43 1021.41 1021.42 1021.45 1021.47 1021.48 1021.46 1021.40 1021.32 1021.21 1021.09
1019.59 1019.63 1019.72 1019.86 1020.04 1020.23 1020.39 1020.52 1020.61 1020.65 1020.65 1020.64 1020.64 1020.68 1020.76 1020.90 1021.11 1021.36 1021.65 1021.97 1022.27 1022.54 1022.75 1022.90 1022.96 1022.95 1022.86 1022.72 1022.55 1022.36 1022.20 1022.07 1022.00 1021.97 1021.99 1022.05 1022.11 1022.16 1022.19 1022.18 1022.12 1022.03 1021.91
1019.91 1019.96 1020.06 1020.22 1020.41 1020.63 1020.84 1021.02 1021.16 1021.26 1021.31 1021.33 1021.34 1021.36 1021.40 1021.49 1021.63 1021.83 1022.09 1022.38 1022.69 1023.00 1023.28 1023.50 1023.64 1023.69 1023.65 1023.54 1023.38 1023.19 1023.00 1022.84 1022.73 1022.68 1022.68 1022.73 1022.80 1022.87 1022.91 1022.91 1022.87 1022.78 1022.65
1020.26 1020.32 1020.44 1020.60 1020.81 1021.04 1021.28 1021.51 1021.70 1021.85 1021.96 1022.03 1022.07 1022.09 1022.12 1022.18 1022.28 1022.44 1022.66 1022.94 1023.25 1023.58 1023.90 1024.18 1024.39 1024.50 1024.53 1024.46 1024.31 1024.13 1023.92 1023.74 1023.59 1023.51 1023.48 1023.50 1023.55 1023.60 1023.63 1023.62 1023.56 1023.45 1023.30
1020.64 1020.73 1020.85 1021.02 1021.23 1021.46 1021.71 1021.96 1022.19 1022.39 1022.56 1022.68 1022.76 1022.81 1022.85 1022.91 1022.99 1023.12 1023.31 1023.56 1023.86 1024.20 1024.55 1024.86 1025.12 1025.30 1025.38 1025.36 1025.25 1025.08 1024.89 1024.69 1024.52 1024.41 1024.34 1024.33 1024.34 1024.36 1024.36 1024.31 1024.22 1024.08 1023.88
1021.04 1021.16 1021.30 1021.47 1021.66 1021.88 1022.12 1022.37 1022.62 1022.85 1023.05 1023.22 1023.35 1023.45 1023.52 1023.59 1023.67 1023.79 1023.95 1024.18 1024.46 1024.79 1025.13 1025.47 1025.76 1025.98 1026.12 1026.15 1026.09 1025.97 1025.80 1025.61 1025.44 1025.31 1025.22 1025.17 1025.14 1025.11 1025.07 1024.99 1024.85 1024.67 1024.43
1021.46 1021.61 1021.76 1021.92 1022.10 1022.29 1022.50 1022.73 1022.97 1023.21 1023.44 1023.65 1023.83 1023.97 1024.09 1024.18 1024.27 1024.39 1024.53 1024.73 1024.99 1025.29 1025.62 1025.95 1026.26 1026.51 1026.69 1026.78 1026.78 1026.71 1026.58 1026.43 1026.28 1026.14 1026.04 1025.97 1025.91 1025.85 1025.76 1025.64 1025.46 1025.23 1024.96
1021.85 1022.05 1022.22 1022.37 1022.52 1022.68 1022.85 1023.05 1023.26 1023.50 1023.74 1023.97 1024.19 1024.38 1024.54 1024.67 1024.78 1024.90 1025.04 1025.21 1025.43 1025.70 1026.00 1026.32 1026.63 1026.90 1027.11 1027.24 1027.30 1027.29 1027.22 1027.11 1026.99 1026.88 1026.78 1026.69 1026.61 1026.52 1026.41 1026.25 1026.04 1025.78 1025.47
1022.20 1022.44 1022.63 1022.79 1022.92 1023.05 1023.18 1023.33 1023.52 1023.73 1023.97 1024.22 1024.47 1024.70 1024.90 1025.07 1025.21 1025.35 1025.48 1025.64 1025.83 1026.06 1026.33 1026.62 1026.92 1027.19 1027.42 1027.60 1027.70 1027.74 1027.72 1027.67 1027.59 1027.50 1027.41 1027.32 1027.23 1027.12 1026.99 1026.81 1026.57 1026.29 1025.96
1022.46 1022.75 1022.98 1023.15 1023.28 1023.38 1023.48 1023.60 1023.76 1023.95 1024.19 1024.45 1024.72 1024.99 1025.23 1025.45 1025.62 1025.78 1025.92 1026.07 1026.24 1026.45 1026.68 1026.95 1027.22 1027.49 1027.72 1027.91 1028.05 1028.13 1028.15 1028.13 1028.08 1028.02 1027.94 1027.86 1027.76 1027.64 1027.49 1027.30 1027.05 1026.76 1026.42
1022.62 1022.97 1023.24 1023.44 1023.57 1023.67 1023.76 1023.86 1024.00 1024.19 1024.43 1024.70 1025.00 1025.30 1025.59 1025.84 1026.06 1026.25 1026.41 1026.56 1026.72 1026.91 1027.12 1027.35 1027.60 1027.85 1028.08 1028.27 1028.42 1028.51 1028.56 1028.56 1028.52 1028.47 1028.40 1028.31 1028.21 1028.08 1027.93 1027.73 1027.48 1027.18 1026.83
Thickness
5726 5723 5721 5719 5717 5716 5715 5715 5714 5714 5713 5713 5713 5713 5713 5714 5714 5715 5717 5719 5721 5723 5725 5727 5729 5731 5733 5735 5737 5739 5741 5743 5745 5748 5750 5752 5753 5755 5757 5759 5761 5763 5766
5725 5723 5720 5718 5716 5714 5713 5712 5712 5712 5711 5711 5710 5710 5710 5711 5711 5712 5714 5715 5717 5719 5721 5724 5726 5728 5730 5731 5733 5735 5737 5739 5741 5744 5746 5748 5749 5751 5753 5756 5758 5760 5762
5725 5722 5720 5717 5715 5713 5712 5711 5710 5710 5709 5708 5707 5708 5707 5708 5708 5709 5710 5712 5714 5715 5717 5719 5721 5723 5725 5727 5729 5731 5733 5735 5737 5740 5742 5744 5746 5748 5750 5752 5754 5757 5758
5724 5721 5719 5716 5715 5713 5711 5710 5708 5706 5705 5705 5704 5705 5705 5706 5706 5707 5708 5709 5710 5711 5713 5715 5717 5719 5721 5723 5725 5728 5730 5732 5734 5736 5739 5741 5743 5745 5746 5748 5750 5752 5754
5722 5720 5718 5716 5714 5712 5711 5709 5706 5705 5703 5702 5702 5702 5702 5703 5704 5704 5705 5706 5707 5708 5709 5711 5713 5714 5717 5719 5722 5724 5726 5728 5730 5733 5735 5737 5740 5741 5743 5744 5746 5748 5750
5722 5720 5717 5716 5714 5712 5709 5708 5705 5705 5703 5702 5702 5699 5699 5700 5701 5701 5702 5703 5704 5705 5706 5707 5709 5710 5712 5715 5717 5719 5722 5725 5727 5730 5733 5735 5737 5738 5739 5740 5742 5744 5746
5721 5719 5717 5715 5714 5711 5709 5708 5706 5703 5701 5701 5698 5694 5695 5697 5698 5698 5700 5700 5701 5702 5703 5704 5705 5707 5708 5711 5713 5715 5718 5721 5724 5728 5731 5732 5733 5734 5735 5736 5738 5740 5742
5720 5719 5717 5715 5714 5711 5709 5708 5706 5702 5701 5701 5697 5691 5687 5688 5692 5696 5697 5698 5698 5699 5700 5701 5702 5703 5705 5707 5709 5712 5714 5718 5721 5725 5727 5729 5729 5729 5730 5732 5734 5736 5738
5719 5718 5717 5715 5714 5712 5709 5708 5707 5704 5700 5701 5701 5696 5688 5684 5686 5690 5692 5694 5695 5696 5697 5698 5699 5700 5702 5704 5706 5709 5711 5714 5717 5720 5722 5724 5725 5724 5725 5726 5729 5731 5732
5718 5717 5716 5715 5714 5712 5710 5709 5708 5706 5704 5700 5701 5701 5699 5696 5688 5684 5687 5689 5691 5692 5693 5694 5695 5697 5698 5700 5702 5704 5706 5708 5711 5714 5716 5718 5718 5719 5719 5720 5723 5724 5725
5717 5716 5716 5715 5713 5712 5710 5709 5708 5707 5705 5703 5701 5700 5699 5697 5695 5688 5682 5684 5686 5687 5689 5690 5692 5693 5695 5696 5697 5699 5700 5702 5705 5708 5710 5711 5711 5711 5712 5714 5715 5716 5717
5715 5715 5715 5714 5713 5712 5710 5709 5708 5707 5706 5705 5703 5702 5700 5697 5694 5691 5685 5682 5681 5683 5686 5687 5689 5690 5691 5691 5692 5694 5695 5697 5699 5701 5704 5704 5704 5704 5706 5706 5708 5708 5708
5713 5714 5714 5713 5712 5712 5711 5710 5708 5707 5706 5704 5703 5702 5702 5700 5699 5695 5688 5683 5681 5681 5682 5684 5685 5686 5687 5687 5688 5689 5691 5692 5693 5695 5697 5697 5697 5698 5699 5699 5700 5700 5700
5713 5714 5713 5712 5712 5711 5710 5709 5707 5706 5705 5704 5703 5702 5701 5700 5699 5697 5691 5685 5679 5677 5678 5680 5682 5683 5683 5684 5684 5685 5686 5687 5688 5689 5690 5690 5691 5691 5691 5692 5692 5692 5692
5715 5714 5713 5712 5711 5710 5709 5708 5706 5704 5704 5702 5701 5701 5699 5698 5698 5697 5694 5691 5684 5676 5674 5676 5678 5680 5680 5680 5681 5681 5681 5682 5682 5683 5683 5684 5684 5684 5685 5685 5685 5684 5684
5714 5713 5711 5710 5709 5708 5707 5706 5704 5703 5702 5700 5699 5699 5697 5696 5695 5695 5693 5691 5688 5682 5674 5674 5675 5677 5677 5677 5677 5677 5677 5677 5677 5678 5677 5678 5678 5678 5678 5678 5678 5677 5677
5713 5712 5711 5709 5708 5706 5705 5704 5702 5701 5700 5698 5698 5697 5695 5694 5693 5692 5691 5689 5686 5683 5676 5673 5674 5675 5675 5674 5674 5674 5673 5673 5673 5672 5672 5672 5672 5672 5672 5671 5671 5670 5670
5712 5711 5710 5708 5706 5705 5703 5702 5700 5699 5698 5696 5695 5694 5693 5693 5691 5689 5688 5686 5684 5682 5678 5673 5672 5672 5672 5671 5671 5670 5670 5669 5669 5668 5668 5667 5666 5666 5666 5665 5664 5663 5663
5711 5710 5708 5706 5705 5703 5702 5701 5699 5697 5696 5695 5693 5692 5691 5690 5688 5687 5686 5684 5682 5680 5677 5672 5669 5668 5667 5667 5666 5666 5666 5665 5665 5664 5663 5662 5661 5660 5659 5659 5658 5657 5656
5709 5707 5706 5705 5704 5702 5700 5699 5697 5695 5694 5693 5692 5691 5690 5689 5687 5685 5683 5681 5679 5676 5672 5669 5666 5664 5663 5663 5662 5660 5659 5659 5659 5659 5657 5656 5654 5653 5653 5652 5652 5651 5650
5708 5706 5704 5703 5702 5700 5699 5697 5696 5693 5691 5690 5689 5688 5688 5687 5686 5685 5682 5679 5676 5672 5668 5665 5662 5660 5658 5657 5656 5655 5653 5652 5653 5652 5650 5649 5648 5646 5646 5645 5645 5644 5643
5704 5703 5702 5701 5699 5699 5698 5697 5695 5692 5689 5687 5685 5685 5684 5684 5683 5682 5680 5678 5676 5671 5666 5662 5659 5656 5655 5654 5653 5652 5648 5647 5645 5646 5643 5642 5641 5639 5639 5638 5638 5637 5636
5701 5700 5699 5698 5696 5696 5696 5695 5693 5690 5687 5685 5683 5682 5682 5680 5679 5677 5676 5674 5672 5670 5668 5663 5658 5655 5654 5652 5650 5647 5644 5641 5638 5639 5637 5634 5633 5632 5632 5631 5630 5629 5627
5697 5696 5695 5695 5693 5693 5693 5692 5690 5687 5685 5683 5681 5680 5678 5676 5675 5673 5671 5668 5666 5664 5663 5661 5658 5655 5654 5651 5649 5645 5642 5638 5636 5634 5631 5626 5626 5624 5625 5624 5623 5621 5619
5694 5693 5692 5691 5690 5689 5690 5689 5687 5684 5681 5679 5678 5677 5676 5674 5673 5671 5667 5663 5661 5659 5659 5657 5655 5652 5650 5647 5645 5641 5637 5633 5628 5626 5624 5619 5618 5617 5617 5616 5615 5612 5610
5692 5691 5689 5688 5687 5686 5686 5685 5684 5680 5677 5675 5674 5673 5672 5671 5669 5667 5663 5660 5656 5654 5653 5651 5649 5647 5644 5642 5639 5636 5632 5626 5621 5618 5617 5613 5610 5607 5607 5608 5606 5604 5601